Content
SEND FEEDBACK

Daily
Averages
Monthly
Summary
Brazil

CUIABA, MATO GROSSO


Home > South America > Brazil > Mato Grosso
Elevation: 623 feet     Latitude: 15 38S     Longitude: 056 06W

WEATHER
 
SELECT A DAY
Number of Records: 170,172;   Date Range: 6/30/96 - 9/30/14
 
SHARE

PRINT THIS DATA

[ ← Previous Day ]
WEATHER ALMANAC - JANUARY 31, 2013
[ Next Day → ]
[ °C ]   °F
Weather ElementAverageHighLow
Temperature76.7 °F82.4 °F (10:00 am)73.4 °F (3:00 am)
Dewpoint71.1 °F73.4 °F (12:00 pm)68 °F (6:00 am)
Humidity82.1 %94 % (1:25 pm)66 % (10:00 am)
Barometer29.79 in29.86 in (10:00 am)29.71 in (5:00 pm)
Wind Speed4.2 mph11.5 mph (10:00 am)
Weather ElementAverage
Visibility6.4 mi
Wind DirectionSSW (203 °)

Weather ElementTotal
Precipitation---
Cooling Degree Days12.9 (Base 65)
Growing Degree Days27.9 (Base 50)
Averaged from 29 records on January 31, 2013
WEATHER CONDITIONS BREAKOUT
WIND DIRECTION BREAKOUT
WEATHER BY HOUR - JANUARY 31, 2013
[ °C ]   °F
Local TimeTemperatureDewpointHumidityBarometerVisibilityWind DirectionWind SpeedGust SpeedPrecipitationEventsConditions
1:00 AM75.2 °F71.6 °F89 %29.83 in6.2 miCalmScattered Clouds
2:00 AM75.2 °F71.6 °F89 %29.83 in6.2 miCalmScattered Clouds
3:00 AM74.0 °F71.0 °F86 %29.76 in12.0 miNNW (340°)5.8 mphScattered Clouds
3:00 AM73.4 °F69.8 °F88 %29.77 in6.2 miNNW (340°)5.8 mphScattered Clouds
4:00 AM73.4 °F69.8 °F88 %29.77 inCalmClear
5:00 AM73.4 °F69.8 °F88 %29.74 in6.2 miNorth (360°)6.9 mphScattered Clouds
6:00 AM73.4 °F68.0 °F83 %29.77 in6.2 miNorth (360°)3.5 mphScattered Clouds
7:00 AM75.2 °F69.8 °F83 %29.80 in6.2 miNNW (340°)4.6 mphMostly Cloudy
8:00 AM77.0 °F69.8 °F78 %29.83 in6.2 miNW (320°)5.8 mphMostly Cloudy
9:00 AM78.0 °F70.0 °F69 %29.83 in12.0 miNorth (350°)6.9 mphPartly Cloudy
9:00 AM77.0 °F69.8 °F78 %29.83 in6.2 miNorth (350°)6.9 mphScattered Clouds
10:00 AM82.4 °F69.8 °F66 %29.86 in6.2 miNNW (340°)11.5 mphScattered Clouds
11:00 AM75.2 °F71.6 °F89 %29.86 in1.9 miNorth (10°)9.2 mphRainLight Rain
11:35 AM75.2 °F71.6 °F89 %29.86 in1.2 miNNE (20°)6.9 mphRainRain
12:00 PM77.0 °F73.4 °F89 %29.83 in2.5 miNorth (350°)2.3 mphDrizzle
1:00 PM75.2 °F71.6 °F89 %29.83 in1.2 miNW (320°)9.2 mphRainRain
1:25 PM73.4 °F71.6 °F94 %29.80 in6.2 miNorth (10°)2.3 mphPartly Cloudy
2:00 PM77.0 °F71.6 °F83 %29.77 in6.2 miNNE (20°)5.8 mphScattered Clouds
3:00 PM80.0 °F71.0 °F66 %29.77 in12.0 miCalmMostly Cloudy
3:00 PM80.6 °F71.6 °F74 %29.77 in6.2 miCalmMostly Cloudy
4:00 PM78.8 °F73.4 °F83 %29.74 in6.2 miNorth (360°)6.9 mphMostly Cloudy
5:00 PM82.4 °F71.6 °F70 %29.71 in6.2 miWNW (300°)6.9 mphMostly Cloudy
6:00 PM80.6 °F71.6 °F74 %29.77 in6.2 miNNW (340°)4.6 mphMostly Cloudy
7:00 PM77.0 °F71.6 °F83 %29.80 in6.2 miNW (320°)4.6 mphMostly Cloudy
8:00 PM77.0 °F71.6 °F83 %29.74 in6.2 miNNW (330°)4.6 mphScattered Clouds
9:00 PM76.0 °F72.0 °F82 %29.76 in12.0 miCalmScattered Clouds
9:00 PM77.0 °F71.6 °F83 %29.77 in6.2 miCalmScattered Clouds
10:00 PM77.0 °F71.6 °F83 %29.80 in6.2 miCalmScattered Clouds
11:00 PM77.0 °F71.6 °F83 %29.80 inCalmClear
Hourly data recorded from SBCY, located miles away from Cuiaba, Mato Grosso







STORIES FROM OUR PARTNERS